,,,PA_Meas_PMT16A,,PR_Meas_QMR101_102,,RH_Meas_QMH101,,SR_Meas_QMS101,,TA_Meas_QMH101,,GenWind,,GenWind,
date,time,status,PA,status,PR,status,RH,status,SR,status,TA,status,DirAvg,status,SpdAvg,
2011-02-01, 00:00:05,VALID,1002.52,VALID,0,INVALID,163.639,VALID,0,VALID,24.8892,VALID,32,VALID,0.723437,
2011-02-01, 00:01:05,VALID,1002.5,VALID,0,INVALID,163.624,VALID,0,VALID,24.9282,VALID,50,VALID,0.417969,
2011-02-01, 00:02:05,VALID,1002.49,VALID,0,INVALID,163.617,VALID,0,VALID,25.0079,VALID,9,VALID,0.780078,
2011-02-01, 00:03:05,VALID,1002.48,VALID,0,INVALID,163.609,VALID,0,VALID,25.1034,VALID,16,VALID,0.4375,
2011-02-01, 00:04:05,VALID,1002.46,VALID,0,INVALID,163.594,VALID,0,VALID,25.1442,VALID,90,VALID,0.617578,
2011-02-01, 00:05:05,VALID,1002.45,VALID,0,INVALID,163.632,VALID,0,VALID,25.1034,VALID,90,VALID,0.564453,
2011-02-01, 00:06:05,VALID,1002.42,VALID,0,INVALID,163.624,VALID,0,VALID,25.0858,VALID,87,VALID,0.283984,
2011-02-01, 00:07:05,VALID,1002.4,VALID,0,INVALID,163.655,VALID,0,VALID,25.0255,VALID,56,VALID,0.63125,
2011-02-01, 00:08:05,VALID,1002.44,VALID,0,INVALID,163.655,VALID,0,VALID,25.0663,VALID,36,VALID,0.335156,
2011-02-01, 00:09:05,VALID,1002.4,VALID,0,INVALID,163.609,VALID,0,VALID,25.045,VALID,35,VALID,0.621484,
2011-02-01, 00:10:05,VALID,1002.37,VALID,0,INVALID,163.609,VALID,0,VALID,25.045,VALID,25,VALID,0.785156,
2011-02-01, 00:11:05,VALID,1002.37,VALID,0,INVALID,163.632,VALID,0,VALID,25.0663,VALID,33,VALID,0.758594,
2011-02-01, 00:12:05,VALID,1002.32,VALID,0,INVALID,163.601,VALID,0,VALID,25.0839,VALID,33,VALID,0.483203,
2011-02-01, 00:13:05,VALID,1002.28,VALID,0,INVALID,163.617,VALID,0,VALID,25.1034,VALID,33,VALID,0.286719,
2011-02-01, 00:14:05,VALID,1002.28,VALID,0,INVALID,163.601,VALID,0,VALID,25.1053,VALID,33,VALID,0.503516,
2011-02-01, 00:15:05,VALID,1002.26,VALID,0,INVALID,163.601,VALID,0,VALID,25.0839,VALID,33,VALID,0.204688,
2011-02-01, 00:16:05,VALID,1002.22,VALID,0,INVALID,163.609,VALID,0.100563,VALID,25.045,VALID,44,VALID,0.346094,
2011-02-01, 00:17:05,VALID,1002.24,VALID,0,INVALID,163.609,VALID,0,VALID,25.0255,VALID,44,VALID,0.0445312,
2011-02-01, 00:18:05,VALID,1002.21,VALID,0,INVALID,163.624,VALID,0,VALID,25.006,VALID,44,VALID,0.134375,
2011-02-01, 00:19:05,VALID,1002.21,VALID,0,INVALID,163.609,VALID,0,VALID,24.9671,VALID,44,VALID,0.299219,
2011-02-01, 00:20:05,VALID,1002.18,VALID,0,INVALID,163.639,VALID,0,VALID,24.93,VALID,44,VALID,0.0996094,
2011-02-01, 00:21:05,VALID,1002.16,VALID,0,INVALID,163.647,VALID,0,VALID,24.8892,VALID,44,VALID,0.13125,
2011-02-01, 00:22:05,VALID,1002.13,VALID,0,INVALID,163.655,VALID,0,VALID,24.8911,VALID,44,VALID,0.334766,
2011-02-01, 00:23:05,VALID,1002.12,VALID,0,INVALID,163.662,VALID,0,VALID,24.8716,VALID,44,VALID,0.369531,
2011-02-01, 00:24:05,VALID,1002.09,VALID,0,INVALID,163.647,VALID,0,VALID,24.8113,VALID,44,VALID,0.397656,
2011-02-01, 00:25:05,VALID,1002.07,VALID,0,INVALID,163.662,VALID,0,VALID,24.8132,VALID,42,VALID,0.241797,
2011-02-01, 00:26:05,VALID,1002.08,VALID,0,INVALID,163.624,VALID,0,VALID,24.7529,VALID,42,VALID,0.21875,
2011-02-01, 00:27:05,VALID,1002.05,VALID,0,INVALID,163.632,VALID,0,VALID,24.7548,VALID,42,VALID,0.0429688,
2011-02-01, 00:28:05,VALID,1002.05,VALID,0,INVALID,163.655,VALID,0,VALID,24.714,VALID,42,VALID,0.252734,
2011-02-01, 00:29:05,VALID,1002.03,VALID,0,INVALID,163.655,VALID,0,VALID,24.7159,VALID,42,VALID,0.046875,
2011-02-01, 00:30:05,VALID,1002.02,VALID,0,INVALID,163.67,VALID,0,VALID,24.6769,VALID,42,VALID,0,
2011-02-01, 00:31:05,VALID,1002.03,VALID,0,INVALID,163.647,VALID,0,VALID,24.6361,VALID,42,VALID,0,
2011-02-01, 00:32:05,VALID,1002.05,VALID,0,INVALID,163.662,VALID,0,VALID,24.638,VALID,42,VALID,0,
2011-02-01, 00:33:05,VALID,1002.05,VALID,0,INVALID,163.67,VALID,0,VALID,24.5972,VALID,42,VALID,0,
2011-02-01, 00:34:05,VALID,1002.02,VALID,0,INVALID,163.67,VALID,0,VALID,24.6204,VALID,42,VALID,0.156641,
2011-02-01, 00:35:05,VALID,1002.03,VALID,0,INVALID,163.678,VALID,0,VALID,24.599,VALID,42,VALID,0.0136719,
2011-02-01, 00:36:05,VALID,1002.01,VALID,0,INVALID,163.655,VALID,0,VALID,24.5777,VALID,42,VALID,0,
2011-02-01, 00:37:05,VALID,1001.97,VALID,0,INVALID,163.685,VALID,0,VALID,24.5388,VALID,42,VALID,0.298828,
2011-02-01, 00:38:05,VALID,1001.97,VALID,0,INVALID,163.693,VALID,0,VALID,24.5193,VALID,42,VALID,0.260547,
2011-02-01, 00:39:05,VALID,1001.95,VALID,0,INVALID,163.67,VALID,0,VALID,24.5406,VALID,42,VALID,0.460938,
2011-02-01, 00:40:05,VALID,1001.91,VALID,0,INVALID,163.678,VALID,0,VALID,24.4804,VALID,42,VALID,0.509375,
2011-02-01, 00:41:05,VALID,1001.9,VALID,0,INVALID,163.685,VALID,0,VALID,24.5017,VALID,42,VALID,0.415234,
2011-02-01, 00:42:05,VALID,1001.9,VALID,0,INVALID,163.67,VALID,0,VALID,24.4414,VALID,42,VALID,0.410937,
2011-02-01, 00:43:05,VALID,1001.87,VALID,0,INVALID,163.655,VALID,0,VALID,24.4414,VALID,42,VALID,0.406641,
2011-02-01, 00:44:05,VALID,1001.87,VALID,0,INVALID,163.67,VALID,0,VALID,24.422,VALID,42,VALID,0.380078,
2011-02-01, 00:45:05,VALID,1001.89,VALID,0,INVALID,163.647,VALID,0,VALID,24.422,VALID,37,VALID,0.370313,
2011-02-01, 00:46:05,VALID,1001.85,VALID,0,INVALID,163.693,VALID,0,VALID,24.4025,VALID,37,VALID,0.378125,
2011-02-01, 00:47:05,VALID,1001.83,VALID,0,INVALID,163.655,VALID,0,VALID,24.422,VALID,37,VALID,0.179688,
2011-02-01, 00:48:05,VALID,1001.81,VALID,0,INVALID,163.67,VALID,0,VALID,24.4414,VALID,37,VALID,0.280078,
2011-02-01, 00:49:05,VALID,1001.83,VALID,0,INVALID,163.685,VALID,0,VALID,24.4433,VALID,37,VALID,0.188281,
2011-02-01, 00:50:05,VALID,1001.81,VALID,0,INVALID,163.678,VALID,0,VALID,24.4025,VALID,36,VALID,0.233984,
2011-02-01, 00:51:05,VALID,1001.76,VALID,0,INVALID,163.662,VALID,0,VALID,24.383,VALID,36,VALID,0.416797,
2011-02-01, 00:52:05,VALID,1001.78,VALID,0,INVALID,163.716,VALID,0,VALID,24.383,VALID,36,VALID,0.0148437,
2011-02-01, 00:53:05,VALID,1001.77,VALID,0,INVALID,163.655,VALID,0,VALID,24.3849,VALID,36,VALID,0.154297,
2011-02-01, 00:54:05,VALID,1001.73,VALID,0,INVALID,163.678,VALID,0,VALID,24.3636,VALID,36,VALID,0.00664063,
2011-02-01, 00:55:05,VALID,1001.69,VALID,0,INVALID,163.678,VALID,0,VALID,24.3636,VALID,36,VALID,0,
2011-02-01, 00:56:05,VALID,1001.71,VALID,0,INVALID,163.678,VALID,0,VALID,24.3849,VALID,36,VALID,0.1,
2011-02-01, 00:57:05,VALID,1001.66,VALID,0,INVALID,163.701,VALID,0,VALID,24.3849,VALID,36,VALID,0.159766,
2011-02-01, 00:58:05,VALID,1001.68,VALID,0,INVALID,163.693,VALID,0,VALID,24.3636,VALID,36,VALID,0.0078125,
2011-02-01, 00:59:05,VALID,1001.64,VALID,0,INVALID,163.647,VALID,0,VALID,24.3849,VALID,36,VALID,0.0308594,
2011-02-01, 01:00:05,VALID,1001.62,VALID,0,INVALID,163.662,VALID,0,VALID,24.3441,VALID,36,VALID,0,
2011-02-01, 01:01:05,VALID,1001.6,VALID,0,INVALID,163.701,VALID,0,VALID,24.3654,VALID,36,VALID,0.105078,
2011-02-01, 01:02:05,VALID,1001.59,VALID,0,INVALID,163.662,VALID,0,VALID,24.422,VALID,34,VALID,0.730078,
2011-02-01, 01:03:05,VALID,1001.57,VALID,0,INVALID,163.723,VALID,0,VALID,24.4414,VALID,37,VALID,0.115625,
2011-02-01, 01:04:05,VALID,1001.57,VALID,0,INVALID,163.647,VALID,0,VALID,24.4414,VALID,37,VALID,0.3125,
2011-02-01, 01:05:05,VALID,1001.58,VALID,0,INVALID,163.67,VALID,0,VALID,24.422,VALID,37,VALID,0.0148437,
2011-02-01, 01:06:05,VALID,1001.56,VALID,0,INVALID,163.647,VALID,0,VALID,24.4414,VALID,37,VALID,0.00234375,
2011-02-01, 01:07:05,VALID,1001.53,VALID,0,INVALID,163.67,VALID,0,VALID,24.4006,VALID,37,VALID,0.26875,
2011-02-01, 01:08:05,VALID,1001.54,VALID,0,INVALID,163.655,VALID,0,VALID,24.422,VALID,37,VALID,0.255859,
2011-02-01, 01:09:05,VALID,1001.54,VALID,0,INVALID,163.647,VALID,0,VALID,24.4998,VALID,329,VALID,0.350391,
2011-02-01, 01:10:05,VALID,1001.54,VALID,0,INVALID,163.655,VALID,0,VALID,24.5174,VALID,329,VALID,0,
2011-02-01, 01:11:05,VALID,1001.48,VALID,0,INVALID,163.632,VALID,0,VALID,24.5601,VALID,329,VALID,0,
2011-02-01, 01:12:05,VALID,1001.5,VALID,0,INVALID,163.67,VALID,0,VALID,24.5582,VALID,329,VALID,0,
2011-02-01, 01:13:05,VALID,1001.48,VALID,0,INVALID,163.647,VALID,0,VALID,24.5601,VALID,329,VALID,0,
2011-02-01, 01:14:05,VALID,1001.49,VALID,0,INVALID,163.655,VALID,0,VALID,24.5582,VALID,329,VALID,0.110156,
2011-02-01, 01:15:05,VALID,1001.48,VALID,0,INVALID,163.647,VALID,0.100563,VALID,24.5582,VALID,329,VALID,0.101563,
2011-02-01, 01:16:05,VALID,1001.47,VALID,0,INVALID,163.655,VALID,0,VALID,24.5972,VALID,356,VALID,0.386719,
2011-02-01, 01:17:05,VALID,1001.45,VALID,0,INVALID,163.67,VALID,0,VALID,24.6361,VALID,356,VALID,0.186719,
2011-02-01, 01:18:05,VALID,1001.45,VALID,0,INVALID,163.647,VALID,0,VALID,24.6574,VALID,356,VALID,0.218359,
2011-02-01, 01:19:05,VALID,1001.43,VALID,0,INVALID,163.655,VALID,0,VALID,24.6556,VALID,356,VALID,0.318359,
2011-02-01, 01:20:05,VALID,1001.43,VALID,0,INVALID,163.655,VALID,0,VALID,24.6556,VALID,356,VALID,0.158203,
2011-02-01, 01:21:05,VALID,1001.38,VALID,0,INVALID,163.701,VALID,0,VALID,24.675,VALID,356,VALID,0.279687,
2011-02-01, 01:22:05,VALID,1001.34,VALID,0,INVALID,163.655,VALID,0,VALID,24.675,VALID,356,VALID,0.0046875,
2011-02-01, 01:23:05,VALID,1001.33,VALID,0,INVALID,163.655,VALID,0,VALID,24.6945,VALID,358,VALID,0.396094,
2011-02-01, 01:24:05,VALID,1001.32,VALID,0,INVALID,163.639,VALID,0,VALID,24.6945,VALID,358,VALID,0.108203,
2011-02-01, 01:25:05,VALID,1001.32,VALID,0,INVALID,163.655,VALID,0,VALID,24.6945,VALID,358,VALID,0.2,
2011-02-01, 01:26:05,VALID,1001.29,VALID,0,INVALID,163.632,VALID,0,VALID,24.675,VALID,358,VALID,0,
2011-02-01, 01:27:05,VALID,1001.27,VALID,0,INVALID,163.678,VALID,0,VALID,24.6556,VALID,358,VALID,0,
2011-02-01, 01:28:05,VALID,1001.29,VALID,0,INVALID,163.67,VALID,0,VALID,24.6361,VALID,358,VALID,0,
2011-02-01, 01:29:05,VALID,1001.3,VALID,0,INVALID,163.67,VALID,0,VALID,24.6166,VALID,358,VALID,0.00703125,
2011-02-01, 01:30:05,VALID,1001.33,VALID,0,INVALID,163.647,VALID,0,VALID,24.6166,VALID,358,VALID,0,
2011-02-01, 01:31:05,VALID,1001.34,VALID,0,INVALID,163.678,VALID,0,VALID,24.5972,VALID,358,VALID,0,
2011-02-01, 01:32:05,VALID,1001.35,VALID,0,INVALID,163.662,VALID,0,VALID,24.5972,VALID,358,VALID,0,
2011-02-01, 01:33:05,VALID,1001.34,VALID,0,INVALID,163.655,VALID,0,VALID,24.5972,VALID,358,VALID,0,
2011-02-01, 01:34:05,VALID,1001.35,VALID,0,INVALID,163.647,VALID,0,VALID,24.6574,VALID,358,VALID,0,
2011-02-01, 01:35:05,VALID,1001.33,VALID,0,INVALID,163.647,VALID,0,VALID,24.6166,VALID,358,VALID,0.126172,
2011-02-01, 01:36:05,VALID,1001.33,VALID,0,INVALID,163.662,VALID,0,VALID,24.5972,VALID,358,VALID,0.18125,
2011-02-01, 01:37:05,VALID,1001.35,VALID,0,INVALID,163.662,VALID,0,VALID,24.6185,VALID,358,VALID,0.127344,
2011-02-01, 01:38:05,VALID,1001.32,VALID,0,INVALID,163.693,VALID,0,VALID,24.6166,VALID,358,VALID,0.223828,
2011-02-01, 01:39:05,VALID,1001.31,VALID,0,INVALID,163.67,VALID,0,VALID,24.6166,VALID,358,VALID,0.2375,
2011-02-01, 01:40:05,VALID,1001.3,VALID,0,INVALID,163.647,VALID,0,VALID,24.5972,VALID,358,VALID,0.358594,
2011-02-01, 01:41:05,VALID,1001.3,VALID,0,INVALID,163.685,VALID,0,VALID,24.5972,VALID,358,VALID,0.326562,
2011-02-01, 01:42:05,VALID,1001.29,VALID,0,INVALID,163.655,VALID,0,VALID,24.5582,VALID,358,VALID,0.372266,
2011-02-01, 01:43:05,VALID,1001.29,VALID,0,INVALID,163.662,VALID,0,VALID,24.599,VALID,358,VALID,0.1375,
2011-02-01, 01:44:05,VALID,1001.26,VALID,0,INVALID,163.662,VALID,0,VALID,24.599,VALID,358,VALID,0,
2011-02-01, 01:45:05,VALID,1001.25,VALID,0,INVALID,163.647,VALID,0,VALID,24.5972,VALID,358,VALID,0,
2011-02-01, 01:46:05,VALID,1001.25,VALID,0,INVALID,163.67,VALID,0,VALID,24.5582,VALID,358,VALID,0.003125,
2011-02-01, 01:47:05,VALID,1001.23,VALID,0,INVALID,163.639,VALID,0,VALID,24.5388,VALID,358,VALID,0,
2011-02-01, 01:48:05,VALID,1001.22,VALID,0,INVALID,163.678,VALID,0,VALID,24.5193,VALID,358,VALID,0,
2011-02-01, 01:49:05,VALID,1001.2,VALID,0,INVALID,163.662,VALID,0,VALID,24.4998,VALID,358,VALID,0,
2011-02-01, 01:50:05,VALID,1001.2,VALID,0,INVALID,163.678,VALID,0,VALID,24.4628,VALID,358,VALID,0,
2011-02-01, 01:51:05,VALID,1001.2,VALID,0,INVALID,163.67,VALID,0,VALID,24.422,VALID,358,VALID,0,
2011-02-01, 01:52:05,VALID,1001.18,VALID,0,INVALID,163.67,VALID,0,VALID,24.4238,VALID,358,VALID,0,
2011-02-01, 01:53:05,VALID,1001.17,VALID,0,INVALID,163.678,VALID,0,VALID,24.4025,VALID,358,VALID,0.235156,
2011-02-01, 01:54:05,VALID,1001.17,VALID,0,INVALID,163.701,VALID,0,VALID,24.422,VALID,358,VALID,0.277734,
2011-02-01, 01:55:05,VALID,1001.21,VALID,0,INVALID,163.67,VALID,0,VALID,24.4628,VALID,358,VALID,0.2625,
2011-02-01, 01:56:05,VALID,1001.19,VALID,0,INVALID,163.655,VALID,0.100563,VALID,24.4414,VALID,358,VALID,0.369922,
2011-02-01, 01:57:05,VALID,1001.18,VALID,0,INVALID,163.639,VALID,0,VALID,24.383,VALID,358,VALID,0.325,
2011-02-01, 01:58:05,VALID,1001.13,VALID,0,INVALID,163.708,VALID,0,VALID,24.3636,VALID,358,VALID,0.3,
2011-02-01, 01:59:05,VALID,1001.17,VALID,0,INVALID,163.639,VALID,0,VALID,24.3441,VALID,358,VALID,0.417578,
2011-02-01, 02:00:05,VALID,1001.2,VALID,0,INVALID,163.701,VALID,0,VALID,24.3052,VALID,358,VALID,0.288672,
2011-02-01, 02:01:05,VALID,1001.17,VALID,0,INVALID,163.678,VALID,0,VALID,24.2662,VALID,358,VALID,0.19375,
2011-02-01, 02:02:05,VALID,1001.15,VALID,0,INVALID,163.693,VALID,0,VALID,24.2468,VALID,358,VALID,0.201562,
2011-02-01, 02:03:05,VALID,1001.16,VALID,0,INVALID,163.693,VALID,0,VALID,24.2273,VALID,358,VALID,0.296484,
2011-02-01, 02:04:05,VALID,1001.15,VALID,0,INVALID,163.678,VALID,0,VALID,24.2273,VALID,358,VALID,0.285937,
2011-02-01, 02:05:05,VALID,1001.18,VALID,0,INVALID,163.708,VALID,0,VALID,24.2486,VALID,358,VALID,0.469922,
2011-02-01, 02:06:05,VALID,1001.17,VALID,0,INVALID,163.701,VALID,0,VALID,24.2468,VALID,358,VALID,0.459766,
2011-02-01, 02:07:05,VALID,1001.17,VALID,0,INVALID,163.716,VALID,0,VALID,24.2273,VALID,358,VALID,0.298047,
2011-02-01, 02:08:05,VALID,1001.22,VALID,0,INVALID,163.701,VALID,0,VALID,24.206,VALID,358,VALID,0.238281,
2011-02-01, 02:09:05,VALID,1001.23,VALID,0,INVALID,163.67,VALID,0,VALID,24.2273,VALID,358,VALID,0.241797,
2011-02-01, 02:10:04,VALID,1001.21,VALID,0,INVALID,163.701,VALID,0.100563,VALID,24.2078,VALID,358,VALID,0.283203,
2011-02-01, 02:11:04,VALID,1001.21,VALID,0,INVALID,163.678,VALID,0,VALID,24.1671,VALID,358,VALID,0.386328,
2011-02-01, 02:12:04,VALID,1001.25,VALID,0,INVALID,163.685,VALID,0,VALID,24.2273,VALID,358,VALID,0.554688,
2011-02-01, 02:13:04,VALID,1001.21,VALID,0,INVALID,163.708,VALID,0.100563,VALID,24.2273,VALID,358,VALID,0.475781,
2011-02-01, 02:14:04,VALID,1001.22,VALID,0,INVALID,163.67,VALID,0,VALID,24.2078,VALID,358,VALID,0.439844,
2011-02-01, 02:15:04,VALID,1001.22,VALID,0,INVALID,163.685,VALID,0,VALID,24.1884,VALID,358,VALID,0.360547,
2011-02-01, 02:16:04,VALID,1001.19,VALID,0,INVALID,163.678,VALID,0.100563,VALID,24.1707,VALID,358,VALID,0.392578,
2011-02-01, 02:17:04,VALID,1001.21,VALID,0,INVALID,163.685,VALID,0,VALID,24.13,VALID,358,VALID,0.368359,
2011-02-01, 02:18:04,VALID,1001.2,VALID,0,INVALID,163.67,VALID,0.100563,VALID,24.091,VALID,358,VALID,0.326953,
2011-02-01, 02:19:04,VALID,1001.22,VALID,0,INVALID,163.701,VALID,0,VALID,24.1336,VALID,358,VALID,0.232031,
2011-02-01, 02:20:04,VALID,1001.17,VALID,0,INVALID,163.67,VALID,0,VALID,24.0716,VALID,358,VALID,0.149219,
2011-02-01, 02:21:04,VALID,1001.19,VALID,0,INVALID,163.716,VALID,0,VALID,24.0716,VALID,358,VALID,0,
2011-02-01, 02:22:04,VALID,1001.17,VALID,0,INVALID,163.716,VALID,0,VALID,24.0734,VALID,358,VALID,0,
2011-02-01, 02:23:04,VALID,1001.15,VALID,0,INVALID,163.723,VALID,0.100563,VALID,24.0734,VALID,358,VALID,0,
2011-02-01, 02:24:04,VALID,1001.17,VALID,0,INVALID,163.693,VALID,0,VALID,24.0734,VALID,358,VALID,0,
2011-02-01, 02:25:04,VALID,1001.17,VALID,0,INVALID,163.693,VALID,0,VALID,24.0326,VALID,358,VALID,0.550391,
2011-02-01, 02:26:04,VALID,1001.16,VALID,0,INVALID,163.716,VALID,0,VALID,24.015,VALID,358,VALID,0.546484,
2011-02-01, 02:27:04,VALID,1001.15,VALID,0,INVALID,163.723,VALID,0.100563,VALID,24.0132,VALID,358,VALID,0.475391,
2011-02-01, 02:28:04,VALID,1001.16,VALID,0,INVALID,163.723,VALID,0.100563,VALID,24.0326,VALID,358,VALID,0.337891,
2011-02-01, 02:29:04,VALID,1001.13,VALID,0,INVALID,163.708,VALID,0.100563,VALID,24.0132,VALID,358,VALID,0.426953,
2011-02-01, 02:30:04,VALID,1001.16,VALID,0,INVALID,163.685,VALID,0,VALID,24.0132,VALID,358,VALID,0.323438,
2011-02-01, 02:31:04,VALID,1001.16,VALID,0,INVALID,163.716,VALID,0,VALID,23.9742,VALID,358,VALID,0.425391,
2011-02-01, 02:32:04,VALID,1001.13,VALID,0,INVALID,163.685,VALID,0.100563,VALID,23.9742,VALID,358,VALID,0.409375,
2011-02-01, 02:33:04,VALID,1001.16,VALID,0,INVALID,163.708,VALID,0.100563,VALID,23.9548,VALID,358,VALID,0.46875,
2011-02-01, 02:34:04,VALID,1001.16,VALID,0,INVALID,163.723,VALID,0.100563,VALID,23.9937,VALID,358,VALID,0.551562,
2011-02-01, 02:35:04,VALID,1001.13,VALID,0,INVALID,163.708,VALID,0.100563,VALID,24.0326,VALID,358,VALID,0.435156,
2011-02-01, 02:36:04,VALID,1001.13,VALID,0,INVALID,163.731,VALID,0,VALID,24.0326,VALID,358,VALID,0.212109,
2011-02-01, 02:37:04,VALID,1001.12,VALID,0,INVALID,163.716,VALID,0,VALID,24.0132,VALID,358,VALID,0.333984,
2011-02-01, 02:38:04,VALID,1001.12,VALID,0,INVALID,163.716,VALID,0,VALID,23.9937,VALID,358,VALID,0.554688,
2011-02-01, 02:39:04,VALID,1001.13,VALID,0,INVALID,163.693,VALID,0.100563,VALID,23.9937,VALID,358,VALID,0.516406,
2011-02-01, 02:40:04,VALID,1001.15,VALID,0,INVALID,163.731,VALID,0,VALID,23.9761,VALID,358,VALID,0.557813,
2011-02-01, 02:41:04,VALID,1001.19,VALID,0,INVALID,163.708,VALID,0,VALID,23.9584,VALID,358,VALID,0.438672,
2011-02-01, 02:42:04,VALID,1001.18,VALID,0,INVALID,163.723,VALID,0,VALID,23.8964,VALID,358,VALID,0.439063,
2011-02-01, 02:43:04,VALID,1001.2,VALID,0,INVALID,163.701,VALID,0,VALID,23.8593,VALID,358,VALID,0.565234,
2011-02-01, 02:44:04,VALID,1001.2,VALID,0,INVALID,163.708,VALID,0,VALID,23.8398,VALID,358,VALID,0.494141,
2011-02-01, 02:45:04,VALID,1001.2,VALID,0,INVALID,163.723,VALID,0,VALID,23.7796,VALID,358,VALID,0.431641,
2011-02-01, 02:46:04,VALID,1001.22,VALID,0,INVALID,163.708,VALID,0,VALID,23.7796,VALID,358,VALID,0.501172,
2011-02-01, 02:47:04,VALID,1001.22,VALID,0,INVALID,163.746,VALID,0,VALID,23.7619,VALID,358,VALID,0.497656,
2011-02-01, 02:48:04,VALID,1001.24,VALID,0,INVALID,163.716,VALID,0,VALID,23.7619,VALID,358,VALID,0.375,
2011-02-01, 02:49:04,VALID,1001.26,VALID,0,INVALID,163.731,VALID,0,VALID,23.7619,VALID,358,VALID,0.428906,
2011-02-01, 02:50:04,VALID,1001.25,VALID,0,INVALID,163.731,VALID,0,VALID,23.7814,VALID,358,VALID,0.452344,
2011-02-01, 02:51:04,VALID,1001.3,VALID,0,INVALID,163.723,VALID,0,VALID,23.7814,VALID,358,VALID,0.326172,
2011-02-01, 02:52:04,VALID,1001.3,VALID,0,INVALID,163.746,VALID,0,VALID,23.8009,VALID,358,VALID,0.402344,
2011-02-01, 02:53:04,VALID,1001.32,VALID,0,INVALID,163.701,VALID,0,VALID,23.8009,VALID,358,VALID,0.363281,
2011-02-01, 02:54:04,VALID,1001.33,VALID,0,INVALID,163.739,VALID,0,VALID,23.7814,VALID,358,VALID,0.229687,
2011-02-01, 02:55:04,VALID,1001.34,VALID,0,INVALID,163.716,VALID,0,VALID,23.7407,VALID,358,VALID,0.180078,
2011-02-01, 02:56:04,VALID,1001.32,VALID,0,INVALID,163.762,VALID,0,VALID,23.7212,VALID,358,VALID,0.137891,
2011-02-01, 02:57:04,VALID,1001.31,VALID,0,INVALID,163.716,VALID,0,VALID,23.7407,VALID,358,VALID,0.252734,
2011-02-01, 02:58:04,VALID,1001.32,VALID,0,INVALID,163.731,VALID,0,VALID,23.7601,VALID,358,VALID,0.459766,
2011-02-01, 02:59:04,VALID,1001.33,VALID,0,INVALID,163.731,VALID,0,VALID,23.7407,VALID,358,VALID,0.497656,
2011-02-01, 03:00:04,VALID,1001.29,VALID,0,INVALID,163.723,VALID,0.100563,VALID,23.7194,VALID,358,VALID,0.420703,
2011-02-01, 03:01:04,VALID,1001.32,VALID,0,INVALID,163.708,VALID,0.100563,VALID,23.7814,VALID,358,VALID,0.4875,
2011-02-01, 03:02:04,VALID,1001.32,VALID,0,INVALID,163.708,VALID,0,VALID,23.7407,VALID,358,VALID,0.403906,
2011-02-01, 03:03:04,VALID,1001.33,VALID,0,INVALID,163.754,VALID,0,VALID,23.7017,VALID,358,VALID,0.438672,
2011-02-01, 03:04:04,VALID,1001.31,VALID,0,INVALID,163.716,VALID,0,VALID,23.7017,VALID,358,VALID,0.348047,
2011-02-01, 03:05:04,VALID,1001.29,VALID,0,INVALID,163.739,VALID,0.100563,VALID,23.6823,VALID,358,VALID,0.413672,
2011-02-01, 03:06:04,VALID,1001.29,VALID,0,INVALID,163.731,VALID,0,VALID,23.661,VALID,358,VALID,0.407031,
2011-02-01, 03:07:04,VALID,1001.28,VALID,0,INVALID,163.739,VALID,0,VALID,23.6434,VALID,358,VALID,0.363281,
2011-02-01, 03:08:04,VALID,1001.28,VALID,0,INVALID,163.723,VALID,0,VALID,23.6239,VALID,358,VALID,0.395703,
2011-02-01, 03:09:04,VALID,1001.27,VALID,0,INVALID,163.723,VALID,0,VALID,23.6026,VALID,358,VALID,0.477344,
2011-02-01, 03:10:04,VALID,1001.26,VALID,0,INVALID,163.723,VALID,0.100563,VALID,23.6452,VALID,358,VALID,0.421094,
2011-02-01, 03:11:04,VALID,1001.25,VALID,0,INVALID,163.723,VALID,0,VALID,23.6044,VALID,358,VALID,0.435547,
2011-02-01, 03:12:04,VALID,1001.24,VALID,0,INVALID,163.716,VALID,0,VALID,23.6044,VALID,358,VALID,0.387891,
2011-02-01, 03:13:04,VALID,1001.23,VALID,0,INVALID,163.746,VALID,0,VALID,23.6044,VALID,356,VALID,0.580078,
2011-02-01, 03:14:04,VALID,1001.23,VALID,0,INVALID,163.746,VALID,0,VALID,23.6221,VALID,354,VALID,0.462109,
2011-02-01, 03:15:04,VALID,1001.25,VALID,0,INVALID,163.762,VALID,0.100563,VALID,23.6628,VALID,354,VALID,0.660547,
2011-02-01, 03:16:04,VALID,1001.25,VALID,0,INVALID,163.739,VALID,0.100563,VALID,23.6628,VALID,353,VALID,0.546094,
2011-02-01, 03:17:04,VALID,1001.26,VALID,0,INVALID,163.723,VALID,0,VALID,23.6628,VALID,353,VALID,0.544922,
2011-02-01, 03:18:04,VALID,1001.28,VALID,0,INVALID,163.739,VALID,0.100563,VALID,23.6434,VALID,355,VALID,0.696094,
2011-02-01, 03:19:04,VALID,1001.26,VALID,0,INVALID,163.762,VALID,0.100563,VALID,23.6221,VALID,355,VALID,0.708594,
2011-02-01, 03:20:04,VALID,1001.24,VALID,0,INVALID,163.723,VALID,0.100563,VALID,23.661,VALID,1,VALID,0.603125,
2011-02-01, 03:21:04,VALID,1001.26,VALID,0,INVALID,163.739,VALID,0.100563,VALID,23.6628,VALID,1,VALID,0.617969,
2011-02-01, 03:22:04,VALID,1001.28,VALID,0,INVALID,163.716,VALID,0.100563,VALID,23.6239,VALID,1,VALID,0.524609,
2011-02-01, 03:23:04,VALID,1001.3,VALID,0,INVALID,163.731,VALID,0.100563,VALID,23.6044,VALID,1,VALID,0.560156,
2011-02-01, 03:24:04,VALID,1001.27,VALID,0,INVALID,163.723,VALID,0.100563,VALID,23.5637,VALID,1,VALID,0.483594,
2011-02-01, 03:25:04,VALID,1001.31,VALID,0,INVALID,163.746,VALID,0,VALID,23.5655,VALID,1,VALID,0.487109,
2011-02-01, 03:26:04,VALID,1001.32,VALID,0,INVALID,163.739,VALID,0,VALID,23.585,VALID,1,VALID,0.442578,
2011-02-01, 03:27:04,VALID,1001.31,VALID,0,INVALID,163.754,VALID,0,VALID,23.6062,VALID,1,VALID,0.513281,
2011-02-01, 03:28:04,VALID,1001.33,VALID,0,INVALID,163.739,VALID,0,VALID,23.6062,VALID,1,VALID,0.539844,
2011-02-01, 03:29:04,VALID,1001.3,VALID,0,INVALID,163.739,VALID,0,VALID,23.6044,VALID,1,VALID,0.450391,
2011-02-01, 03:30:04,VALID,1001.3,VALID,0,INVALID,163.746,VALID,0,VALID,23.5868,VALID,1,VALID,0.484766,
2011-02-01, 03:31:04,VALID,1001.29,VALID,0,INVALID,163.746,VALID,0,VALID,23.5673,VALID,1,VALID,0.625781,
2011-02-01, 03:32:04,VALID,1001.33,VALID,0,INVALID,163.716,VALID,0,VALID,23.5284,VALID,1,VALID,0.625781,
2011-02-01, 03:33:04,VALID,1001.29,VALID,0,INVALID,163.731,VALID,0,VALID,23.5089,VALID,1,VALID,0.688672,
2011-02-01, 03:34:04,VALID,1001.32,VALID,0,INVALID,163.739,VALID,0,VALID,23.5478,VALID,1,VALID,0.666016,
2011-02-01, 03:35:04,VALID,1001.34,VALID,0,INVALID,163.746,VALID,0,VALID,23.5089,VALID,1,VALID,0.63125,
2011-02-01, 03:36:04,VALID,1001.33,VALID,0,INVALID,163.769,VALID,0,VALID,23.4877,VALID,1,VALID,0.584766,
2011-02-01, 03:37:04,VALID,1001.36,VALID,0,INVALID,163.746,VALID,0,VALID,23.4894,VALID,1,VALID,0.492578,
2011-02-01, 03:38:04,VALID,1001.38,VALID,0,INVALID,163.777,VALID,0,VALID,23.4894,VALID,1,VALID,0.384375,
2011-02-01, 03:39:04,VALID,1001.35,VALID,0,INVALID,163.746,VALID,0,VALID,23.4877,VALID,1,VALID,0.204688,
2011-02-01, 03:40:04,VALID,1001.39,VALID,0,INVALID,163.754,VALID,0,VALID,23.5478,VALID,1,VALID,0,
2011-02-01, 03:41:04,VALID,1001.4,VALID,0,INVALID,163.746,VALID,0.100563,VALID,23.5266,VALID,1,VALID,0,